TimeCST,TemperatureF,Dew PointF,Humidity,Sea Level PressureIn,VisibilityMPH,Wind Direction,Wind SpeedMPH,Gust SpeedMPH,PrecipitationIn,Events,Conditions,WindDirDegrees,DateUTC
12:24 AM,69.1,59.0,70,29.95,10.0,SSE,9.2,-,N/A,,Overcast,150,2012-11-11 06:24:00
12:53 AM,69.1,59.0,70,29.94,10.0,South,9.2,-,N/A,,Overcast,170,2012-11-11 06:53:00
1:53 AM,68.0,59.0,73,29.91,10.0,SE,6.9,-,N/A,,Overcast,130,2012-11-11 07:53:00
2:53 AM,68.0,59.0,73,29.91,10.0,SE,8.1,-,N/A,,Overcast,140,2012-11-11 08:53:00
3:53 AM,68.0,59.0,73,29.89,10.0,SSE,9.2,18.4,N/A,,Overcast,150,2012-11-11 09:53:00
4:17 AM,68.0,59.0,73,29.89,10.0,SSE,11.5,19.6,N/A,,Overcast,150,2012-11-11 10:17:00
4:53 AM,66.9,59.0,76,29.88,10.0,SE,10.4,17.3,N/A,,Overcast,130,2012-11-11 10:53:00
5:23 AM,66.9,59.0,76,29.90,10.0,SE,4.6,-,N/A,,Overcast,140,2012-11-11 11:23:00
5:53 AM,66.9,60.1,79,29.89,10.0,SE,5.8,-,N/A,,Overcast,140,2012-11-11 11:53:00
6:53 AM,68.0,61.0,78,29.91,10.0,SSE,10.4,-,N/A,,Overcast,150,2012-11-11 12:53:00
7:53 AM,66.9,62.1,84,29.93,8.0,SSE,9.2,-,0.00,Rain,Light Rain,150,2012-11-11 13:53:00
8:53 AM,66.9,62.1,84,29.92,8.0,SSE,10.4,-,0.00,,Overcast,150,2012-11-11 14:53:00
9:44 AM,66.0,63.0,90,29.93,1.8,SE,10.4,-,0.01,Rain,Rain,140,2012-11-11 15:44:00
10:07 AM,64.9,63.0,93,29.94,1.5,Variable,5.8,-,N/A,Rain,Light Rain,0,2012-11-11 16:07:00
10:13 AM,64.9,63.0,93,29.93,3.0,SE,4.6,-,N/A,Rain,Light Rain,140,2012-11-11 16:13:00
10:27 AM,64.9,63.0,93,29.92,7.0,South,5.8,-,N/A,,Overcast,170,2012-11-11 16:27:00
10:41 AM,66.0,64.0,93,29.91,4.0,South,8.1,-,N/A,Rain,Light Rain,170,2012-11-11 16:41:00
10:53 AM,66.0,64.0,93,29.90,6.0,South,8.1,-,N/A,Rain,Light Rain,170,2012-11-11 16:53:00
11:27 AM,66.0,64.0,93,29.90,1.8,South,9.2,-,N/A,Rain,Heavy Rain,170,2012-11-11 17:27:00
11:37 AM,66.0,64.0,93,29.88,0.5,SSE,10.4,18.4,N/A,Fog-Rain,Heavy Rain,150,2012-11-11 17:37:00
11:43 AM,66.0,64.0,93,29.88,1.0,SE,11.5,-,N/A,Rain,Rain,140,2012-11-11 17:43:00
11:50 AM,66.2,64.4,94,29.88,3.0,South,8.1,-,N/A,Rain,Light Rain,190,2012-11-11 17:50:00
12:16 PM,66.0,64.0,93,29.87,5.0,North,-9999.0,-,N/A,,Overcast,0,2012-11-11 18:16:00
12:53 PM,66.9,64.9,93,29.83,4.0,North,-9999.0,-,N/A,Rain,Light Rain,0,2012-11-11 18:53:00
1:12 PM,66.9,64.9,93,29.85,2.5,North,-9999.0,-,N/A,Rain,Rain,0,2012-11-11 19:12:00
1:28 PM,66.9,64.9,93,29.81,5.0,North,-9999.0,-,N/A,Rain,Light Rain,0,2012-11-11 19:28:00
1:53 PM,68.0,64.0,87,29.79,10.0,North,-9999.0,-,N/A,,Mostly Cloudy,0,2012-11-11 19:53:00
2:18 PM,66.9,64.0,90,29.84,1.5,North,-9999.0,-,N/A,Rain,Heavy Rain,0,2012-11-11 20:18:00
2:29 PM,66.0,64.0,93,29.86,2.5,North,-9999.0,-,N/A,Rain,Light Rain,0,2012-11-11 20:29:00
2:32 PM,64.9,62.1,90,29.86,7.0,NW,16.1,-,N/A,Rain,Light Rain,320,2012-11-11 20:32:00
2:53 PM,57.9,54.0,87,29.88,10.0,NNW,16.1,28.8,N/A,,Overcast,330,2012-11-11 20:53:00
3:53 PM,55.9,51.1,84,29.93,10.0,North,5.8,-,N/A,,Overcast,10,2012-11-11 21:53:00
4:53 PM,55.9,51.1,84,29.95,10.0,ENE,6.9,-,N/A,,Overcast,60,2012-11-11 22:53:00
5:53 PM,55.0,51.1,86,30.00,10.0,WNW,4.6,-,N/A,,Overcast,290,2012-11-11 23:53:00
6:53 PM,55.0,51.1,86,30.03,10.0,Calm,Calm,-,N/A,,Overcast,0,2012-11-12 00:53:00
7:53 PM,55.0,48.9,80,30.06,10.0,WNW,4.6,-,N/A,,Overcast,300,2012-11-12 01:53:00
8:53 PM,52.0,46.9,83,30.09,10.0,NNW,10.4,-,N/A,,Overcast,340,2012-11-12 02:53:00
9:44 PM,50.0,45.0,83,30.15,10.0,NNW,8.1,-,N/A,,Overcast,330,2012-11-12 03:44:00
9:53 PM,50.0,45.0,83,30.15,10.0,NNW,8.1,-,N/A,,Overcast,330,2012-11-12 03:53:00
10:53 PM,48.0,42.1,80,30.17,10.0,NNW,8.1,-,N/A,,Overcast,330,2012-11-12 04:53:00
11:53 PM,46.0,39.9,79,30.19,10.0,NW,11.5,17.3,N/A,,Overcast,320,2012-11-12 05:53:00